{"data":{"norad_id":58650,"epoch":"2026-05-20T16:49:19.449120Z","epoch_age_seconds":436592,"freshness":"STALE","line1":"1 58650U 23206A   26140.70091955  .00001176  00000+0  10397-3 0  9993","line2":"2 58650  97.4041 109.8851 0002037 277.5903  82.5089 14.98082859131199","mean_motion":14.98082859,"eccentricity":0.0002037,"inclination_deg":97.4041,"raan_deg":109.8851,"arg_perigee_deg":277.5903,"mean_anomaly_deg":82.5089,"bstar":0.00010397,"rev_number":13119,"period_min":96.122854043015,"perigee_km":571.4043491726,"apogee_km":574.23616915999,"semimajor_km":6950.9572591663,"source":"CELESTRAK","updated_at":"2026-05-25T13:38:00.876197Z"}}